TimeEST,TemperatureF,Dew PointF,Humidity,Sea Level PressureIn,VisibilityMPH,Wind Direction,Wind SpeedMPH,Gust SpeedMPH,PrecipitationIn,Events,Conditions,WindDirDegrees,DateUTC
12:51 AM,28.9,23.0,78,30.43,10.0,Calm,Calm,-,N/A,,Scattered Clouds,0,2012-12-13 05:51:00
1:51 AM,27.0,23.0,85,30.43,10.0,Calm,Calm,-,N/A,,Partly Cloudy,0,2012-12-13 06:51:00
2:51 AM,25.0,21.9,88,30.43,10.0,Calm,Calm,-,N/A,,Partly Cloudy,0,2012-12-13 07:51:00
3:51 AM,24.1,21.9,91,30.42,10.0,Calm,Calm,-,N/A,,Scattered Clouds,0,2012-12-13 08:51:00
4:51 AM,25.0,21.9,88,30.43,10.0,WSW,3.5,-,N/A,,Scattered Clouds,250,2012-12-13 09:51:00
5:51 AM,24.1,21.0,88,30.44,10.0,Calm,Calm,-,N/A,,Scattered Clouds,0,2012-12-13 10:51:00
6:51 AM,23.0,21.2,93,30.43,10.0,NNW,3.5,-,N/A,,Mostly Cloudy,340,2012-12-13 11:51:00
7:51 AM,24.1,21.0,88,30.46,8.0,Calm,Calm,-,N/A,,Scattered Clouds,0,2012-12-13 12:51:00
8:51 AM,28.9,24.1,82,30.47,9.0,Calm,Calm,-,N/A,,Partly Cloudy,0,2012-12-13 13:51:00
9:51 AM,33.1,26.1,75,30.46,10.0,Calm,Calm,-,N/A,,Partly Cloudy,0,2012-12-13 14:51:00
10:51 AM,37.0,26.1,65,30.44,10.0,Calm,Calm,-,N/A,,Scattered Clouds,0,2012-12-13 15:51:00
11:51 AM,41.0,26.1,55,30.42,10.0,Calm,Calm,-,N/A,,Scattered Clouds,0,2012-12-13 16:51:00
12:51 PM,43.0,21.9,43,30.40,10.0,Calm,Calm,-,N/A,,Scattered Clouds,0,2012-12-13 17:51:00
1:51 PM,43.0,21.9,43,30.38,10.0,Calm,Calm,-,N/A,,Partly Cloudy,0,2012-12-13 18:51:00
2:51 PM,43.0,21.9,43,30.36,10.0,SE,3.5,-,N/A,,Partly Cloudy,140,2012-12-13 19:51:00
3:51 PM,41.0,23.0,49,30.36,10.0,Calm,Calm,-,N/A,,Clear,0,2012-12-13 20:51:00
4:51 PM,39.0,23.0,53,30.36,10.0,Calm,Calm,-,N/A,,Clear,0,2012-12-13 21:51:00
7:51 PM,33.1,21.9,64,30.35,10.0,Calm,Calm,-,N/A,,Clear,0,2012-12-14 00:51:00
8:51 PM,30.9,21.9,69,30.35,10.0,West,4.6,-,N/A,,Clear,280,2012-12-14 01:51:00
9:51 PM,28.9,21.9,75,30.32,10.0,Calm,Calm,-,N/A,,Clear,0,2012-12-14 02:51:00
10:51 PM,27.0,21.9,81,30.32,10.0,Calm,Calm,-,N/A,,Partly Cloudy,0,2012-12-14 03:51:00
11:51 PM,26.6,21.2,80,30.30,10.0,Calm,Calm,-,N/A,,Partly Cloudy,0,2012-12-14 04:51:00